Regional Weather Roundup
Issued by NWS

Home | Current Version | Previous Version | Text Only | Print | Product List | Glossary Off
Versions: 1 2 3 4 5 6 7 8 9 10 11 12 13 14 15 16 17 18 19 20 21 22 23 24 25 26 27 28 29 30 31 32 33 34 35 36 37 38 39 40 41 42 43 44 45 46 47 48 49 50

000
ASUS43 KMKX 211521
RWRWI

WISCONSIN REGIONAL WEATHER ROUNDUP
NATIONAL WEATHER SERVICE MILWAUKEE/SULLIVAN WI
1000 AM CDT SUN SEP 21 2014

NOTE: "FAIR" INDICATES FEW OR NO CLOUDS BELOW 12,000 FEET WITH NO
SIGNIFICANT WEATHER AND/OR OBSTRUCTIONS TO VISIBILITY.

WIZ001-002-006>008-014>016-023>028-211600-
NORTHWEST WISCONSIN

CITY           SKY/WX    TMP DP  RH WIND       PRES   REMARKS
SUPERIOR ARPT  CLOUDY    56  47  73 N10       30.07R
ASHLAND        CLOUDY    51  44  77 N16G22    30.06R
HAYWARD        PTSUNNY   53  47  79 N10G18    30.05R
SIREN          PTSUNNY   55  49  79 N12G22    30.08R
RICE LAKE      PTSUNNY   55  46  74 NW12G18   30.06R
LADYSMITH      PTSUNNY   54  47  78 N15G22    30.03R
EAU CLAIRE     MOSUNNY   58  47  66 N16G23    30.02R
MENOMONIE      MOSUNNY   57  46  67 N16G25    30.04R
NEW RICHMOND   CLOUDY    53  50  90 N9        30.08R
OSCEOLA        PTSUNNY   56  52  87 N8        30.11R
$$

WIZ003>005-009-010-017-018-211600-
NORTH CENTRAL WISCONSIN

CITY           SKY/WX    TMP DP  RH WIND       PRES   REMARKS
WOODRUFF       CLOUDY    49  44  81 N14G25    29.98R
RHINELANDER    CLOUDY    47  42  83 N10G20    29.96R
EAGLE RIVER    CLOUDY    45  39  80 N13G24    29.96R
LAND O LAKES   CLOUDY    47  40  78 N13G20    29.97R
PHILLIPS       CLOUDY    49  44  85 N9G17     30.00R
TOMAHAWK       CLOUDY    49  44  81 N10G18    29.97R
MEDFORD        CLOUDY    51  45  80 N16G25    29.97R
MERRILL        PTSUNNY   51  46  81 N15G21    29.95R
$$

WIZ029-030-035-036-043>047-211600-
CENTRAL WISCONSIN

CITY           SKY/WX    TMP DP  RH WIND       PRES   REMARKS
WAUSAU         MOSUNNY   52  45  77 N16G28    29.92R
MOSINEE        PTSUNNY   52  48  87 N15G25    29.94R
MARSHFIELD     PTSUNNY   57  50  77 N15G22    29.96R
STEVENS POINT  LGT RAIN  53  50  90 N15G22    29.92R
WAUPACA        CLOUDY    58  55  90 NW12      29.89R
WAUTOMA        CLOUDY    58  53  83 N12       29.90R
WISC RAPIDS    CLOUDY    55  49  80 N16G26    29.95R
CAMP DOUGLAS   CLOUDY    57  57 100 NW12      29.94R
$$

WIZ011>013-019>022-031-037>040-048>050-211600-
NORTHEAST WISCONSIN

CITY           SKY/WX    TMP DP  RH WIND       PRES   REMARKS
ANTIGO         PTSUNNY   49  44  81 N22G31    29.92R
STURGEON BAY   CLOUDY    54  48  82 N22G28    29.84R
GREEN BAY      CLOUDY    57  52  83 N16G26    29.85R
MANITOWOC      LGT RAIN  57  52  83 N18G25    29.81R
APPLETON       CLOUDY    55  54  94 N15       29.86R
CLINTONVILLE   RAIN      55  50  82 N16G23    29.89R
OSHKOSH        CLOUDY    58  53  84 NW14      29.86R
$$

WIZ032>034-041-042-053>061-211600-
SOUTHWEST WISCONSIN

CITY           SKY/WX    TMP DP  RH WIND       PRES   REMARKS
LA CROSSE      CLOUDY    59  51  75 NW13      29.98R
SPARTA         CLOUDY    56  50  79 NW13G18   29.97R
VIROQUA        CLOUDY    55  51  87 NW14G20   29.97R
BOSCOBEL       CLOUDY    59  50  72 NW9G17    29.97R
PRAIRIE DU CHI CLOUDY    57  48  73 NW12      29.99R
PLATTEVILLE    CLOUDY    56  51  81 NW13      29.97R
$$

WIZ056-057-062-063-064-067-068-211600-
SOUTH CENTRAL WISCONSIN

CITY           SKY/WX    TMP DP  RH WIND       PRES   REMARKS
BARABOO/DELLS  CLOUDY    57  50  77 NW10G23   29.91R
LONE ROCK      CLOUDY    62  50  64 NW15      29.94R
WATERTOWN      CLOUDY    56  55  95 NW17G25   29.86R
MADISON        DRIZZLE   59  51  75 NW10G22   29.89R
MIDDLETON      CLOUDY    59  51  74 NW15      29.91R
MONROE         CLOUDY    55  50  82 NW18G26   29.91R
JANESVILLE     CLOUDY    57  54  88 NW15G21   29.88R
$$

WIZ051-052-058>065-066-070>072-211600-
SOUTHEAST WISCONSIN

CITY           SKY/WX    TMP DP  RH WIND       PRES   REMARKS
MILWAUKEE      PTSUNNY   59  51  75 NW17G23   29.82R
WAUKESHA       NOT AVBL
MILWAUKEE/TIMM CLOUDY    57  52  82 NW17G23   29.82R
RACINE         PTSUNNY   59  52  77 NW18G26   29.84R
BURLINGTON     CLOUDY    54  52  92 NW16G22   29.86R
KENOSHA        CLOUDY    57  52  83 NW14G25   29.83R
FOND DU LAC    CLOUDY    58  53  84 N10       29.85R
SHEBOYGAN      LGT RAIN  58  52  80 N17G24    29.82R
WEST BEND      RAIN      54  52  94 NW10G20   29.84R
JUNEAU         CLOUDY    54  52  94 NW10      29.88R
$$

LSZ147-162-211600-
LAKE SUPERIOR

STATION/POSITION TIME  TEMP    WIND        PRES    WAVE
                       AIR SEA DIR/SP/G            HT/PER
                 (UTC) (F)     (DEG/KT/KT) (MB)    (FT/S)
W MID LAKE BUOY  1450   46 46  360/ 17/ 23 1017.2R   3/ 5
DEVILS ISLAND    1500   49     350/ 17/ 19 1018.4R
PORT WING        1440   52      10/ 10/ 13 1018.3R
SAXON HARBOR     1400   53      30/ 14/ 18 1016.3R
$$

LMZ867-665-643>646-211600-
LAKE MICHIGAN

STATION/POSITION TIME  TEMP    WIND        PRES    WAVE
                       AIR SEA DIR/SP/G            HT/PER
                 (UTC) (F)     (DEG/KT/KT) (MB)    (FT/S)
N MID LAKE BUOY  1450   54 58  350/ 27/ 35 1007.1R   6/ 5
NORTHPORT PIER   1505   54     340/ 26/ 27 1009.8R
SISTER BAY       1442          360/ 25/ 33   N/A
KEWAUNEE LAKESHO 1500   54     340/ 13/ 23 1008.9R
SHEBOYGAN LAKESH 1500   57 51  330/ 21/ 25 1009.6R
PORT WASHINGTON  1420   59     300/  7/ 20 1009.5R
ATWATER BUOY     1500   58     300/ 16/ 21 1010.5R
MILWAUKEE LAKESH 1500   60     310/ 11/ 16   N/A
S MID LAKE BUOY  1450   59 63  290/ 25/ 31 1007.6R   6/ 6
KENOSHA   LAKESH 1500   58     300/ 17/ 23 1009.8R
$$

TC  - TEMPERATURE IN CELSIUS
VSB - VISIBILITY IN STATUTE MILES
WCI - WIND CHILL INDEX
HX  - HEAT INDEX




USA.gov is the U.S. government's official web portal to all federal, state and local government web resources and services.